Regional Weather Roundup
Issued by NWS Sioux Falls, SD

Home | Current Version | Previous Version | Text Only | Print | Product List | Glossary Off
Versions: 1 2 3 4 5 6 7 8 9 10 11 12 13 14 15 16 17 18 19 20 21 22 23 24 25 26 27 28 29 30 31 32 33 34 35 36 37 38 39 40 41 42 43 44 45 46 47 48 49 50

000
ASUS43 KFSD 241602
RWRFSD

WEATHER ROUNDUP FOR SE SOUTH DAKOTA/SW MINNESOTA/NW IOWA
NATIONAL WEATHER SERVICE SIOUX FALLS SD
1100 AM CDT FRI MAR 24 2017

NOTE: "FAIR" INDICATES FEW OR NO CLOUDS BELOW 12,000 FEET WITH NO
SIGNIFICANT WEATHER AND OR OBSTRUCTIONS TO VISIBILITY.


SDZ038>040-050-052>070-241700-
SOUTHEAST SOUTH DAKOTA

CITY           SKY/WX    TMP DP  RH WIND       PRES   REMARKS
BROOKINGS      CLOUDY    38  34  85 NE16G22   30.03R
CHAMBERLAIN    CLOUDY    43  37  79 N9        30.08R
HURON          CLOUDY    38  36  92 N12       30.09R
MADISON        CLOUDY    37  37 100 NE22G28   30.01F
MITCHELL       CLOUDY    42  37  82 N16       30.04F
SIOUX FALLS    CLOUDY    39  36  89 N14G26    30.00R
WINNER         CLOUDY    46  35  65 N14       30.08R
YANKTON        CLOUDY    39  36  87 N13       30.01R
$$

MNZ071-072-080-081-089-090-097-098-241700-
SOUTHWEST MINNESOTA

CITY           SKY/WX    TMP DP  RH WIND       PRES   REMARKS
FAIRMONT       LGT RAIN  38  37  97 N17       29.95R VSB 3/4
JACKSON        CLOUDY    36  36 100 N17G24    29.96F FOG
LUVERNE        CLOUDY    36  34  93 N12G21    30.00R
MARSHALL       CLOUDY    38  35  89 N15       30.05R
MONTEVIDEO     CLOUDY    39  37  93 NE13      30.07R
PIPESTONE      CLOUDY    36  32  87 NE22      29.98F
REDWOOD FALLS  CLOUDY    39  35  86 N14       30.02R
TRACY          CLOUDY    37  37 100 N17       30.02R FOG
WINDOM         CLOUDY    37  37 100 N18       29.96F FOG
WORTHINGTON    CLOUDY    36  35  96 N17G25    29.98R FOG
$$

IAZ001>003-012>014-020>022-031-032-NEZ013-014-SDZ071-241700-
NORTHWEST IOWA

CITY           SKY/WX    TMP DP  RH WIND       PRES   REMARKS
CHEROKEE       CLOUDY    41  40  97 N13       29.95R FOG
ESTHERVILLE    FOG       37  37 100 N18       29.94R VSB 3/4
LE MARS        CLOUDY    41  39  93 N13       29.98R
ORANGE CITY    CLOUDY    37  37 100 N9G20     29.97R
SHELDON        CLOUDY    37  37 100 N18       29.95R FOG
SIOUX CITY     CLOUDY    42  40  92 N15       29.96R
SPENCER        CLOUDY    40  38  93 N18       29.94R FOG
STORM LAKE     CLOUDY    41  39  93 NE17G23   29.92R FOG
$$

ABBREVIATIONS USED IN REMARKS
   TC - TEMPERATURE IN CELSIUS
  WCI - WIND CHILL INDEX
   HX - HEAT INDEX
  VSB - VISIBILITY




USA.gov is the U.S. government's official web portal to all federal, state and local government web resources and services.